Regional Weather Roundup
Issued by NWS Midland/Odessa, TX

Skip options and go directly to product.
Home | Oldest Version | Next Version | Current Version | All | Text Only | Save Text | Print | Product List | Glossary On

Skip product version selection by date and time.   
362
ASUS44 KMAF 240701
RWRMAF
MIDLAND AREA WEATHER ROUNDUP
NATIONAL WEATHER SERVICE MIDLAND TX
200 AM CDT SAT SEP 24 2016

...IN SOUTHWEST TEXAS AND SOUTHEAST NEW MEXICO...

CITY           SKY/WX    TMP DP  RH WIND       PRES   REMARKS
ALPINE         CLEAR     72  59  63 S7        30.09S
ANDREWS        FAIR      73  63  69 S13       29.96S
ARTESIA        CLEAR     61  50  67 W9        29.97R
BIG SPRING     PTCLDY    78  64  61 SE16G23   29.97S
CARLSBAD       PTCLDY    68  49  50 CALM      29.94R
DRYDEN           N/A     78  64  61 E9        29.92R
FORT STOCKTON  CLEAR     76  62  62 S18G26    29.93S
GUAD PASS      CLEAR     67  45  45 S9        30.10R
HOBBS          PTCLDY    72  64  78 S12       29.98F
MARFA          CLEAR    N/A N/A N/A W6        30.08S
MIDLAND AIRPK  CLEAR     78  62  57 S14       29.95F
MIDLAND INTL   CLEAR     76  62  62 S13       29.94F
ODESSA         CLEAR     77  62  59 S14       29.95F
PECOS          MOCLDY    78  63  59 W3        29.91S
PRESIDIO       NOT AVBL
SEMINOLE       CLEAR     73  63  71 S8        29.97F
SNYDER           N/A     73  63  70 CALM      29.97S
WINK           CLOUDY    77  61  57 SE12      29.91S
$$
...OTHER STATIONS IN TEXAS...

CITY           SKY/WX    TMP DP  RH WIND       PRES   REMARKS
ABILENE        CLEAR     76  69  79 SE12      29.96S
AMARILLO       PTCLDY    73  61  65 S22       29.96R
AUSTIN         MOCLDY    77  75  93 CALM      29.98R
BROWNSVILLE    PTCLDY    81  75  82 SE5       29.93S
CORPUS CHRISTI PTCLDY    82  76  81 SE8       29.93F
DALLAS FTW     CLEAR     81  71  71 S14       29.97R
DEL RIO        CLEAR     80  71  74 E12       29.90S
EL PASO        PTCLDY    74  46  36 NW9       30.01S
HOUSTON INT    PTCLDY    77  75  93 SE6       29.98R
LUBBOCK        MOCLDY    73  62  68 S17G23    29.96R
SAN ANGELO     CLEAR     79  67  66 SE12      29.94F
SAN ANTONIO    CLOUDY    78  74  87 SE7       29.98S
WACO           CLEAR     78  74  87 S12       29.98S
WICHITA FALLS  NOT AVBL
$$
...OTHER LOCATIONS IN NEW MEXICO...

CITY           SKY/WX    TMP DP  RH WIND       PRES   REMARKS
ALAMAGORDO     CLEAR     64  37  36 NW6       30.03S
ALBUQUERQUE    PTCLDY    51  43  74 N10       30.11R
CANNON AFB     MOCLDY    64  47  54 NW2       30.00S
CLOVIS         MOCLDY    64  52  63 CALM      30.00S
HOLLOMAN AFB   CLEAR     63  39  41 NE6       30.01S
ROSWELL        CLEAR     62  46  55 N7        29.97R
RUIDOSO        CLEAR     55  41  58 NW12      30.17F
SANTA FE       CLEAR     41  40  96 N9        30.14R WCI  35
TRUTH OR CONSE CLEAR     62  46  55 NW7       30.06S
TUCUMCARI      CLEAR     59  41  51 S9        29.96R
$$

USA.gov is the U.S. government's official web portal to all federal, state and local government web resources and services.